ISS (ZARYA) 1 25544U 98067A 26258.36891387 .00005779 00000+0 11250-3 0 9997 2 25544 51.6311 213.7631 0004926 142.7188 217.4143 15.49122235585738 POISK 1 36086U 09060A 26258.36891387 .00005779 00000+0 11250-3 0 9995 2 36086 51.6311 213.7631 0004926 142.7188 217.4143 15.49122235586462 CSS (TIANHE) 1 48274U 21035A 26258.35289062 .00020525 00000+0 25055-3 0 9997 2 48274 41.4674 134.5712 0002647 280.7206 79.3335 15.59957604307247 ISS (NAUKA) 1 49044U 21066A 26258.36891387 .00005779 00000+0 11250-3 0 9993 2 49044 51.6311 213.7631 0004926 142.7188 217.4143 15.49122235586505 FREGAT DEB 1 49271U 11037PF 26256.73444482 .00015379 00000+0 21697-1 0 9992 2 49271 51.6442 95.2041 0941670 119.1674 250.6712 12.44406137236066 CSS (WENTIAN) 1 53239U 22085A 26258.35289062 .00020525 00000+0 25055-3 0 9990 2 53239 41.4674 134.5712 0002647 280.7206 79.3335 15.59957604288231 CSS (MENGTIAN) 1 54216U 22143A 26258.35289062 .00020525 00000+0 25055-3 0 9991 2 54216 41.4674 134.5712 0002647 280.7206 79.3335 15.59957604308072 HRC MONOBLOCK CAMERA 1 66052U 98067XR 26258.13373416 .00257754 36884-4 67055-3 0 9999 2 66052 51.6153 171.3647 0004853 146.2520 213.8797 15.94519015 52241 SZ-21 MODULE 1 66515U 25246C 26257.87743326 .00081009 00000+0 32637-3 0 9995 2 66515 41.4693 105.2909 0012052 298.8399 61.1239 15.85259358 47932 DUPLEX 1 66906U 98067XS 26258.41652995 .00059208 00000+0 49044-3 0 9998 2 66906 51.6254 191.5196 0004292 142.2428 217.8871 15.69645296 44795 KNACKSAT-2 1 67683U 98067XZ 26258.24239319 .00075035 00000+0 63897-3 0 9991 2 67683 51.6252 198.6358 0008055 164.2470 195.8779 15.68848655 34374 GXIBA-1 1 67685U 98067YB 26258.22404646 .00098006 00000+0 70522-3 0 9994 2 67685 51.6230 196.2273 0008835 161.5479 198.5842 15.72756741 34401 UITMSAT-2 1 67686U 98067YC 26258.20154349 .00234366 00000+0 99490-3 0 9991 2 67686 51.6217 190.7696 0007960 142.0790 218.0775 15.84062234 34473 LEOPARD 1 67687U 98067YD 26257.57089780 .00145956 00000+0 99454-3 0 9993 2 67687 51.6251 200.1566 0008180 138.9142 221.2474 15.73856885 34219 HMU-SAT2 1 67688U 98067YE 26257.22753096 .00118805 00000+0 68475-3 0 9996 2 67688 51.6249 198.5732 0007880 132.7318 227.4347 15.77775365 34208 CREW DRAGON 12 1 67796U 26031A 26258.17538348 .00006015 00000+0 11677-3 0 9995 2 67796 51.6311 214.7209 0004917 142.0099 218.1237 15.49120584586670 CYGNUS NG-24 1 68689U 26079A 26258.17538348 .00006015 00000+0 11677-3 0 9999 2 68689 51.6311 214.7209 0004917 142.0099 218.1237 15.49120584586795 PROGRESS-MS 34 1 68837U 26093A 26258.17538348 .00006015 00000+0 11677-3 0 9990 2 68837 51.6311 214.7209 0004917 142.0099 218.1237 15.49120584586835 TIANZHOU-10 1 69049U 26102A 26258.03278496 .00020529 00000+0 25072-3 0 9997 2 69049 41.4675 136.5170 0002661 279.9553 80.0985 15.59945520308034 SHENZHOU-23 (SZ-23) 1 69180U 26113A 26258.03278496 .00020529 00000+0 25072-3 0 9995 2 69180 41.4675 136.5170 0002661 279.9553 80.0985 15.59945520307893